Muscle Shoals, AL

5:32 AM CST on December 14, 2019 (GMT -0600)
Northwest Alabama Regional

Weather History for KMSL - October, 2019

Change the Weather History Date:

Sunday, October 27, 2019

  Actual Average Record
Temperature  
Mean Temperature 61 °F 58 °F  
Max Temperature 64 °F 71 °F 87 °F (1963)
Min Temperature 57 °F 46 °F 25 °F (1961)
Degree Days  
Heating Degree Days 4 7  
Month to date heating degree days 94 122  
Since 1 July heating degree days 94 137  
Cooling Degree Days 0 1  
Month to date cooling degree days 142 57  
Year to date cooling degree days 2500 1859  
Growing Degree Days 10 (Base 50)    
Moisture  
Dew Point 53 °F    
Average Humidity 77    
Maximum Humidity 89    
Minimum Humidity 65    
Precipitation  
Precipitation 0.00 in 0.13 in 2.03 in (1972)
Month to date precipitation 5.15 2.95  
Year to date precipitation 51.67 42.38  
Snow  
Snow 0.00 in - - ()
Month to date snowfall 0.0  
Since 1 July snowfall 0.0  
Since 1 September snowfall 0.0  
Snow Depth 0.00 in    
Sea Level Pressure  
Sea Level Pressure 30.01 in    
Wind  
Wind Speed 2 mph (West)    
Max Wind Speed 9 mph    
Max Gust Speed 11 mph    
Visibility 10 miles    
Events      
T = Trace of Precipitation, MM = Missing Value Source: NWS Daily Summary

Daily Weather History Graph

Daily Weather History Graph

Search for Another Location

Airport or City:

Astronomy

Oct. 27, 2019 Rise Set
Actual Time 7:06 AM CDT 6:01 PM CDT
Civil Twilight 6:40 AM CDT 6:27 PM CDT
Nautical Twilight 6:10 AM CDT 6:57 PM CDT
Astronomical Twilight 5:41 AM CDT 7:26 PM CDT
Moon 6:18 AM CDT (10/27) 6:08 PM CDT (10/27)
Length of Visible Light 11h 47m
Length of Day
10h 55m
Waning Crescent, 0% of the Moon is Illuminated
Oct 27
Waning Crescent
Oct 27
New
Nov 4
First Quarter
Nov 12
Full
Nov 19
Last Quarter

Hourly Weather History & Observations

Time (CDT) Temp. Dew Point Humidity Pressure Visibility Wind Dir Wind Speed Gust Speed Precip Events Conditions
12:53 AM 57.9 °F 53.1 °F 84% 29.88 in 10.0 mi WNW 10.4 mph - N/A   Overcast
1:53 AM 57.9 °F 52.0 °F 81% 29.90 in 10.0 mi West 5.8 mph - N/A   Overcast
2:53 AM 57.9 °F 53.1 °F 84% 29.91 in 10.0 mi West 5.8 mph - N/A   Overcast
3:53 AM 57.9 °F 53.1 °F 84% 29.92 in 10.0 mi West 6.9 mph - N/A   Overcast
4:53 AM 57.9 °F 54.0 °F 87% 29.94 in 10.0 mi NW 3.5 mph - N/A   Overcast
5:53 AM 57.0 °F 54.0 °F 89% 29.95 in 10.0 mi WSW 3.5 mph - N/A   Overcast
6:53 AM 57.9 °F 54.0 °F 87% 29.96 in 10.0 mi Calm Calm - N/A   Overcast
7:53 AM 57.9 °F 54.0 °F 87% 29.99 in 10.0 mi NNW 3.5 mph - N/A   Overcast
8:05 AM 57.9 °F 54.0 °F 87% 30.00 in 10.0 mi NW 4.6 mph - N/A   Overcast
8:53 AM 57.9 °F 54.0 °F 87% 30.02 in 10.0 mi SW 4.6 mph - N/A   Overcast
9:53 AM 60.1 °F 54.0 °F 80% 30.03 in 10.0 mi Calm Calm - N/A   Overcast
10:53 AM 61.0 °F 53.1 °F 75% 30.04 in 10.0 mi East 3.5 mph - N/A   Overcast
11:53 AM 63.0 °F 53.1 °F 70% 30.05 in 10.0 mi NE 3.5 mph - N/A   Overcast
12:53 PM 64.0 °F 52.0 °F 65% 30.04 in 10.0 mi Calm Calm - N/A   Overcast
1:53 PM 64.0 °F 53.1 °F 67% 30.03 in 10.0 mi SSE 4.6 mph - N/A   Overcast
2:53 PM 63.0 °F 53.1 °F 70% 30.03 in 10.0 mi South 3.5 mph - N/A   Overcast
3:53 PM 64.0 °F 53.1 °F 67% 30.04 in 10.0 mi South 3.5 mph - N/A   Overcast
4:53 PM 63.0 °F 53.1 °F 70% 30.04 in 10.0 mi Calm Calm - N/A   Overcast
5:53 PM 63.0 °F 54.0 °F 72% 30.04 in 10.0 mi Calm Calm - N/A   Overcast
6:53 PM 62.1 °F 55.0 °F 78% 30.05 in 10.0 mi Calm Calm - N/A   Overcast
7:53 PM 62.1 °F 52.0 °F 70% 30.05 in 10.0 mi East 4.6 mph - N/A   Overcast
8:53 PM 62.1 °F 53.1 °F 72% 30.06 in 10.0 mi Calm Calm - N/A   Overcast
9:53 PM 60.1 °F 54.0 °F 80% 30.06 in 10.0 mi Calm Calm - N/A   Overcast
10:53 PM 60.1 °F 54.0 °F 80% 30.05 in 10.0 mi Calm Calm - N/A   Overcast
11:53 PM 60.1 °F 55.0 °F 83% 30.05 in 10.0 mi Calm Calm - N/A   Overcast